User: anonymous   Login
Location: Lourdes
(43.1000°N, 0.0500°W)
Time: 23:07:40
(UTC+00:00)
Language:

Cosmos 1328 Rocket - Orbit

View from above orbital plane
View from above orbital plane
View from above satellite
View from above satellite

Ground track
Ground track

The orbit data is extracted from the following two-line orbital elements,

1 12988U 81117B   21059.48711020  .00000072  00000-0  56206-5 0  9999
2 12988  82.5219 244.7512 0019392  61.9301 328.1096 14.84799019 99432
Epoch (UTC): 28 February 2021 11:41:26
Eccentricity: 0.0019392
inclination: 82.5219°
perigee height: 600 km
apogee height: 628 km
right ascension of ascending node: 244.7512°
argument of perigee: 61.9301°
revolutions per day: 14.84799019
mean anomaly at epoch: 328.1096°
orbit number at epoch: 9943

The dashed part of the orbit path shows where the satellite is in the earth's shadow,  

DLR